• MPC Preparation (Info)

  • MPEC 2014-E38 : 2014 EE

    The following Minor Planet Electronic Circular may be linked-to from your own Web pages, but must not otherwise be redistributed electronically.

    A form allowing access to any MPEC is at the bottom of this page.


    Read MPEC 2014-E37 Read MPEC 2014-E39


    M.P.E.C. 2014-E38                                Issued 2014 Mar. 5, 19:48 UT
    
         The Minor Planet Electronic Circulars contain information on unusual
             minor planets and routine data on comets.  They are published
       on behalf of Commission 20 of the International Astronomical Union by the
              Minor Planet Center, Smithsonian Astrophysical Observatory,
                              Cambridge, MA 02138, U.S.A.
    
                 Prepared using the Tamkin Foundation Computer Network
    
                                  MPC@CFA.HARVARD.EDU
                URL https://www.minorplanetcenter.net/    ISSN 1523-6714
    
                                        2014 EE
    
    Observations:
         K14E00E* C2014 03 04.51586 13 00 01.250-10 21 34.54         20.0 wLEE038F51
         K14E00E  C2014 03 04.51652 13 00 01.281-10 21 31.82         19.9 wLEE038F51
         K14E00E  C2014 03 04.52879 13 00 01.713-10 20 43.79         20.1 wLEE038F51
         K14E00E  C2014 03 04.52945 13 00 01.716-10 20 40.85         20.3 wLEE038F51
         K14E00E  C2014 03 04.54171 13 00 02.147-10 19 52.30         20.1 wLEE038F51
         K14E00E  C2014 03 04.54237 13 00 02.160-10 19 49.92         20.1 wLEE038F51
         K14E00E  C2014 03 04.55463 13 00 02.587-10 19 01.72         20.2 wLEE038F51
         K14E00E  C2014 03 04.55529 13 00 02.609-10 18 59.02         20.2 wLEE038F51
         K14E00E KC2014 03 05.12147 13 00 27.19 -09 41 56.9                qEE038J95
         K14E00E KC2014 03 05.12813 13 00 27.43 -09 41 30.8                qEE038J95
         K14E00E KC2014 03 05.13471 13 00 27.64 -09 41 04.9          19.8 RqEE038J95
         K14E00E |C2014 03 05.32221 13 00 35.45 -09 28 14.3          19.9 VuEE038807
         K14E00E |C2014 03 05.32591 13 00 35.58 -09 27 59.7          20.4 VuEE038807
         K14E00E |C2014 03 05.32987 13 00 35.67 -09 27 44.0          20.2 VuEE038807
         K14E00E KC2014 03 05.36348813 00 37.19 -09 25 59.1          20.4 VqEE038H21
         K14E00E KC2014 03 05.36755713 00 37.34 -09 25 43.4          20.1 VqEE038H21
         K14E00E KC2014 03 05.37162413 00 37.45 -09 25 26.6          19.8 VqEE038H21
         K14E00E KC2014 03 05.37569313 00 37.62 -09 25 11.3          19.8 VqEE038H21
         K14E00E  C2014 03 05.42711 13 00 39.70 -09 21 45.9                oEE038711
         K14E00E  C2014 03 05.42985 13 00 39.77 -09 21 35.4                oEE038711
         K14E00E IC2014 03 05.44888 13 00 40.36 -09 20 20.5                oEE038711
    
    Observer details:
    711 McDonald Observatory.  Observer J. G. Ries.  2.1-m reflector + CCD + focal
        reducer.
    807 Cerro Tololo.  Observers T. Linder, R. Holmes.  Measurers T. Linder,
        R. Holmes, K. Baker.  0.41-m f/11 Ritchey-Chretien + CCD.
    F51 Pan-STARRS 1, Haleakala.  Observers N. Primak, A. Schultz, T. Goggia,
        M. Willman.  Measurer PS1 Science Consortium.  1.8-m Ritchey-Chretien
        + CCD.
    H21 Astronomical Research Observatory, Westfield.  Observer R. Holmes.
        Measurers T. Vorobjov, L. Buzzi, S. Foglia, T. Linder.  0.61-m f/4.0
        astrograph + CCD.
    J95 Great Shefford.  Observer P. Birtwhistle.  0.40-m f/6.0 Schmidt-Cassegrain
        + CCD.
    
    Orbital elements:
    2014 EE                                                  Earth MOID = 0.2629 AU
    Epoch 2013 Nov. 4.0 TT = JDT 2456600.5                  MPC
    M 339.68233              (2000.0)            P               Q
    n   0.29204030     Peri.  312.29227     -0.60692555     -0.79401076
    a   2.2499569      Node   174.71887     +0.79364118     -0.60780109
    e   0.4802127      Incl.   21.99439     +0.04213139     +0.01116867
    P   3.37           H   20.6           G   0.15           U   8
    Residuals in seconds of arc
    140304 F51  0.4-  0.1-    140304 F51  0.3-  0.0     140305 H21  0.8-  0.5+
    140304 F51  0.3-  0.0     140305 J95  0.3-  0.1+    140305 H21  0.5-  0.1+
    140304 F51  0.1-  0.3-    140305 J95  0.3-  0.1-    140305 H21  0.9-  0.8+
    140304 F51  0.4-  0.1+    140305 J95  0.6-  0.2-    140305 H21  0.4-  0.1+
    140304 F51  0.2-  0.3+    140305 807  0.0   0.1+    140305 711  0.6+  0.1-
    140304 F51  0.4-  0.1+    140305 807  0.2+  0.1+    140305 711  0.3+  0.5-
    140304 F51  0.3-  0.1-    140305 807  0.4-  0.2+    140305 711  0.0   0.8-
    
    Ephemeris:
    2014 EE                  a,e,i = 2.25, 0.48, 22                  q = 1.1695
    Date    TT    R. A. (2000) Decl.     Delta      r     Elong.  Phase     V
    2014 02 03    12 07 51.0 -35 38 16   0.3961  1.1930   112.2    49.9    20.8
    ...
    2014 02 18    12 41 58.4 -25 04 41   0.3564  1.2352   126.8    39.8    20.4
    ...
    2014 02 26    12 53 46.6 -17 20 29   0.3463  1.2652   136.9    32.3    20.2
    ...
    2014 03 04    12 59 37.7 -10 55 15   0.3463  1.2905   145.0    26.2    20.0
    2014 03 05    13 00 22.2 -09 49 37   0.3471  1.2950   146.3    25.1    20.0
    2014 03 06    13 01 03.0 -08 43 53   0.3480  1.2995   147.7    24.1    20.0
    ...
    2014 03 12    13 03 54.6 -02 14 07   0.3587  1.3277   155.2    18.3    19.9
    ...
    2014 03 20    13 05 02.6 +05 42 45   0.3859  1.3681   162.1    12.9    20.0
    ...
    2014 04 04    13 02 32.8 +16 33 43   0.4749  1.4507   157.8    15.1    20.6
    
    A. U. Tomatic                (C) Copyright 2014 MPC           M.P.E.C. 2014-E38
    

    Read MPEC 2014-E37 Read MPEC 2014-E39


    MPEC number:

    Enter an MPEC number in one of the following forms:

    • 1997-B01 (the full form)
    • J97B01 (the packed version of the full form)
    • B01 (the abbreviated form)